GW1523 Weather Reports


time (UTC)temp
F
wind
direction
speed
knots
gust
knots
rain 1hr
in
rain 24hr
in
rain mn
in
humidity
%
barometer
mb
20260510063946 54 17 10.4 16.5 0.00 0.00 0.00 82 1015.0
20260510063449 54 10 9.6 16.5 0.00 0.00 0.00 83 1014.9
20260510062947 53 20 7.8 19.1 0.00 0.00 0.00 83 1015.1
20260510062449 53 4 13.0 19.1 0.00 0.00 0.00 84 1015.1
20260510061957 53 18 9.6 14.8 0.00 0.00 0.00 86 1015.0
20260510061449 52 28 5.2 12.2 0.00 0.00 0.00 86 1015.3
20260510060948 52 10 6.1 9.6 0.00 0.00 0.00 88 1015.2
20260510060451 52 4 5.2 9.6 0.00 0.00 0.00 89 1015.1
20260510060211 51 18 7.8 9.6 0.00 0.00 0.00 89 1015.2
20260510055449 51 354 5.2 11.3 0.00 0.00 0.00 89 1015.3
20260510054951 51 348 5.2 11.3 0.00 0.00 0.00 89 1015.2
20260510054449 51 15 7.0 11.3 0.00 0.00 0.00 90 1015.3
20260510053948 51 9 5.2 11.3 0.00 0.00 0.00 90 1015.3
20260510053458 51 11 7.0 11.3 0.00 0.00 0.00 91 1015.2
20260510052951 50 2 6.1 11.3 0.00 0.00 0.00 91 1015.2
20260510052451 50 0 5.2 11.3 0.00 0.00 0.00 91 1015.2
20260510051455 50 346 5.2 8.7 0.00 0.00 0.00 92 1015.4
20260510050948 50 5 3.5 8.7 0.00 0.00 0.00 93 1015.3
20260510050451 50 355 5.2 7.8 0.00 0.00 0.00 93 1015.0
20260510045949 50 8 5.2 7.0 0.00 0.00 0.00 93 1015.2
20260510045712 49 11 4.3 7.0 0.00 0.00 0.00 93 1015.2
20260510045216 49 11 5.2 7.0 0.00 0.00 0.00 92 1015.1
20260510044452 49 11 4.3 7.0 0.00 0.00 0.00 92 1015.1
20260510043951 49 15 3.5 7.8 0.00 0.00 0.00 92 1015.0
20260510043448 49 11 5.2 7.8 0.00 0.00 0.00 92 1015.1
20260510042949 49 11 5.2 7.8 0.00 0.00 0.00 92 1015.1
20260510042449 49 10 5.2 7.8 0.00 0.00 0.00 92 1015.0
20260510041949 49 2 5.2 7.8 0.00 0.00 0.00 92 1014.8
20260510041451 49 6 5.2 7.0 0.00 0.00 0.00 92 1014.8
20260510040949 49 357 4.3 7.0 0.00 0.00 0.00 91 1014.9
20260510040450 49 1 4.3 8.7 0.00 0.00 0.00 91 1014.9
20260510035949 49 15 4.3 8.7 0.00 0.00 0.00 91 1015.0
20260510035457 49 8 4.3 7.0 0.00 0.00 0.00 91 1015.0
20260510034952 49 358 5.2 7.0 0.00 0.00 0.00 91 1014.8
20260510034450 49 1 5.2 6.1 0.00 0.00 0.00 91 1014.9
20260510033947 49 357 4.3 7.0 0.00 0.00 0.00 90 1014.9
20260510033706 49 10 5.2 7.0 0.00 0.00 0.00 90 1014.9
20260510033231 49 12 5.2 7.0 0.00 0.00 0.00 90 1015.0
20260510032450 49 13 4.3 7.8 0.00 0.00 0.00 90 1015.2
20260510031947 49 10 5.2 7.8 0.00 0.00 0.00 90 1014.9
20260510031448 50 20 5.2 7.0 0.00 0.00 0.00 90 1014.9
20260510030951 50 13 5.2 7.8 0.00 0.00 0.00 90 1015.1
20260510030449 50 12 5.2 7.8 0.00 0.00 0.00 90 1015.0
20260510025951 50 12 5.2 7.0 0.00 0.00 0.00 90 1015.1
20260510025716 49 6 5.2 7.8 0.00 0.00 0.00 90 1015.0
20260510024949 50 346 5.2 7.8 0.00 0.00 0.00 89 1015.2
20260510024452 50 354 6.1 7.8 0.00 0.00 0.00 89 1015.2
20260510023448 50 343 4.3 7.8 0.00 0.00 0.00 88 1015.2
20260510022949 50 9 6.1 7.0 0.00 0.00 0.00 88 1015.3
20260510022449 50 25 4.3 7.8 0.00 0.00 0.00 88 1015.2
20260510021949 50 352 4.3 7.8 0.00 0.00 0.00 89 1015.0
20260510020948 49 355 5.2 7.8 0.00 0.00 0.00 89 1015.4
20260510020445 49 342 5.2 7.0 0.00 0.00 0.00 88 1015.2
20260510020205 49 0 4.3 6.1 0.00 0.00 0.00 88 1015.2
20260510015442 49 23 3.5 7.0 0.00 0.00 0.00 87 1015.3
20260510014942 50 358 4.3 7.8 0.00 0.00 0.00 87 1015.4
20260510014442 49 353 4.3 7.8 0.00 0.00 0.00 87 1015.4
20260510013942 50 352 4.3 7.0 0.00 0.00 0.00 87 1015.3
20260510013700 50 3 5.2 7.0 0.00 0.00 0.00 86 1015.4
20260510012944 50 358 3.5 6.1 0.00 0.00 0.00 86 1015.6
20260510012442 50 9 3.5 6.1 0.00 0.00 0.00 85 1015.4
20260510012211 50 8 3.5 6.1 0.00 0.00 0.00 84 1015.6
20260510011442 50 16 3.5 7.0 0.00 0.00 0.00 84 1015.6
20260510011206 51 9 5.2 7.8 0.00 0.00 0.00 84 1015.5
20260510005942 51 8 3.5 7.8 0.00 0.00 0.00 84 1015.6
20260510005442 51 0 4.3 7.8 0.00 0.00 0.00 84 1015.7
20260510004443 51 5 5.2 11.3 0.00 0.00 0.00 84 1015.7
20260510003942 51 343 4.3 11.3 0.00 0.00 0.00 84 1015.5
20260510003456 51 349 7.0 8.7 0.00 0.00 0.00 84 1015.7
20260510002947 51 355 7.8 8.7 0.00 0.00 0.00 84 1015.8
20260510002446 51 345 5.2 8.7 0.00 0.00 0.00 84 1015.7
20260510001946 51 356 6.1 8.7 0.00 0.00 0.00 84 1015.7
20260510001442 51 346 6.1 7.8 0.00 0.00 0.00 83 1015.9
20260510001213 51 354 5.2 7.8 0.00 0.00 0.00 83 1016.1
20260510000445 51 352 4.3 7.8 0.00 0.00 0.00 82 1016.0
20260509235945 52 348 5.2 7.8 0.00 0.00 0.00 81 1016.2
20260509235444 52 6 5.2 7.8 0.00 0.00 0.00 81 1016.1
20260509234944 52 5 5.2 7.8 0.00 0.00 0.00 80 1016.0
20260509234443 52 4 5.2 7.8 0.00 0.00 0.00 80 1016.2
20260509233943 52 356 4.3 8.7 0.00 0.00 0.00 80 1016.0
20260509233442 52 4 7.0 9.6 0.00 0.00 0.00 80 1016.1
20260509232942 52 0 5.2 9.6 0.00 0.00 0.00 79 1015.8
20260509232442 52 13 6.1 8.7 0.00 0.00 0.00 79 1016.2
20260509231943 52 351 5.2 7.8 0.00 0.00 0.00 79 1016.2
20260509231713 51 359 5.2 8.7 0.00 0.00 0.00 79 1016.2
20260509231205 52 354 4.3 8.7 0.00 0.00 0.00 78 1016.3
20260509230443 52 357 5.2 8.7 0.00 0.00 0.00 78 1016.2
20260509225942 52 352 7.0 9.6 0.00 0.00 0.00 77 1016.2
20260509225447 52 353 5.2 9.6 0.00 0.00 0.00 76 1016.3
20260509225200 52 344 5.2 9.6 0.00 0.00 0.00 76 1016.2
20260509224443 52 349 4.3 9.6 0.00 0.00 0.00 76 1016.2
20260509223940 53 351 6.1 9.6 0.00 0.00 0.00 76 1016.3
20260509223442 53 353 6.1 8.7 0.00 0.00 0.00 76 1016.2
20260509222942 53 354 7.8 8.7 0.00 0.00 0.00 75 1016.3
20260509222444 53 352 7.0 7.8 0.00 0.00 0.00 75 1016.3
20260509221943 53 347 7.0 7.8 0.00 0.00 0.00 74 1016.2
20260509221443 53 0 6.1 8.7 0.00 0.00 0.00 74 1016.3
20260509221002 53 357 4.3 8.7 0.00 0.00 0.00 74 1016.2
20260509220442 53 346 7.0 9.6 0.00 0.00 0.00 74 1016.1
20260509215944 54 355 4.3 9.6 0.00 0.00 0.00 73 1016.0
20260509215706 54 2 4.3 8.7 0.00 0.00 0.00 73 1016.2
20260509214942 54 353 5.2 7.8 0.00 0.00 0.00 72 1016.1
20260509214442 54 1 5.2 7.8 0.00 0.00 0.00 72 1016.1
20260509213941 54 357 5.2 9.6 0.00 0.00 0.00 73 1016.1
20260509213442 54 5 7.0 9.6 0.00 0.00 0.00 74 1016.3
20260509212943 54 354 5.2 9.6 0.00 0.00 0.00 73 1016.3
20260509212450 54 343 6.1 8.7 0.00 0.00 0.00 73 1016.2
20260509211942 55 346 6.1 8.7 0.00 0.00 0.00 73 1016.3
20260509211441 55 349 5.2 8.7 0.00 0.00 0.00 73 1016.1
20260509211211 55 354 5.2 7.8 0.00 0.00 0.00 73 1016.1
20260509210442 55 348 4.3 9.6 0.00 0.00 0.00 73 1016.1
20260509205942 55 10 5.2 12.2 0.00 0.00 0.00 73 1015.9
20260509205706 56 348 7.0 12.2 0.00 0.00 0.00 73 1016.0
20260509204945 56 345 6.1 11.3 0.00 0.00 0.00 73 1016.0
20260509204446 56 353 7.0 11.3 0.00 0.00 0.00 73 1016.0
20260509203945 56 354 5.2 9.6 0.00 0.00 0.00 73 1016.0
20260509203445 56 355 6.1 9.6 0.00 0.00 0.00 73 1015.8
20260509202953 56 9 6.1 11.3 0.00 0.00 0.00 72 1015.8
20260509202446 56 7 7.0 11.3 0.00 0.00 0.00 72 1015.8
20260509201946 56 1 7.0 12.2 0.00 0.00 0.00 73 1015.9
20260509201448 57 348 6.1 12.2 0.00 0.00 0.00 72 1016.0
20260509200445 57 353 7.8 11.3 0.00 0.00 0.00 72 1015.9
20260509195945 57 0 6.1 11.3 0.00 0.00 0.00 71 1016.1
20260509195445 57 353 5.2 12.2 0.00 0.00 0.00 71 1016.2
20260509194947 58 344 7.0 12.2 0.00 0.00 0.00 71 1016.0
20260509194454 58 347 8.7 12.2 0.00 0.00 0.00 70 1015.9
20260509193946 58 342 7.8 11.3 0.00 0.00 0.00 70 1015.6
20260509193446 58 348 7.0 11.3 0.00 0.00 0.00 70 1015.8
20260509192945 59 340 7.8 12.2 0.00 0.00 0.00 69 1015.9
20260509192442 59 353 7.8 14.8 0.00 0.00 0.00 69 1015.6
20260509191942 59 352 9.6 14.8 0.00 0.00 0.00 68 1015.6
20260509191442 60 7 7.8 11.3 0.00 0.00 0.00 68 1015.6
20260509191223 60 350 6.1 12.2 0.00 0.00 0.00 68 1015.6
20260509190442 60 350 7.8 9.6 0.00 0.00 0.00 68 1015.5
20260509190217 60 4 7.0 11.3 0.00 0.00 0.00 67 1015.6
20260509185444 61 352 7.8 12.2 0.00 0.00 0.00 65 1015.6
20260509184951 61 357 6.1 13.9 0.00 0.00 0.00 65 1015.8
20260509184441 62 343 8.7 13.9 0.00 0.00 0.00 63 1015.8
20260509184212 62 348 7.8 13.9 0.00 0.00 0.00 63 1015.6
20260509183442 62 354 5.2 12.2 0.00 0.00 0.00 62 1015.5
20260509183205 63 346 6.1 13.9 0.00 0.00 0.00 61 1015.7
20260509182455 63 358 7.8 13.9 0.00 0.00 0.00 60 1015.3
20260509182206 63 349 6.1 13.9 0.00 0.00 0.00 60 1015.4
20260509181442 64 343 6.1 14.8 0.00 0.00 0.00 59 1015.6
20260509180942 64 344 10.4 16.5 0.00 0.00 0.00 57 1015.4
20260509180442 64 355 12.2 16.5 0.00 0.00 0.00 56 1015.4
20260509175942 65 8 7.0 13.9 0.00 0.00 0.00 54 1015.5
20260509175441 65 338 6.1 13.9 0.00 0.00 0.00 56 1015.6
20260509174943 65 10 6.1 15.6 0.00 0.00 0.00 55 1015.5
20260509174444 65 357 8.7 15.6 0.00 0.00 0.00 55 1015.5
20260509173942 66 356 9.6 14.8 0.00 0.00 0.00 54 1015.4
20260509173706 66 354 10.4 14.8 0.00 0.00 0.00 53 1015.2
20260509173209 67 14 7.8 14.8 0.00 0.00 0.00 54 1015.1
20260509172442 67 12 7.0 14.8 0.00 0.00 0.00 54 1015.2
20260509171942 67 341 6.1 16.5 0.00 0.00 0.00 51 1015.2
20260509171710 67 344 9.6 14.8 0.00 0.00 0.00 52 1015.1
20260509170942 68 1 7.0 14.8 0.00 0.00 0.00 52 1015.2
20260509170443 68 322 10.4 14.8 0.00 0.00 0.00 51 1015.1
20260509170206 68 328 4.3 13.0 0.00 0.00 0.00 50 1015.1
20260509165442 69 355 8.7 14.8 0.00 0.00 0.00 51 1015.2
20260509164942 69 11 8.7 14.8 0.00 0.00 0.00 49 1015.2
20260509164446 69 92 2.6 6.1 0.00 0.00 0.00 48 1015.1
20260509163942 69 78 1.7 6.1 0.00 0.00 0.00 45 1015.3
20260509163443 69 86 5.2 6.1 0.00 0.00 0.00 46 1015.3
20260509163205 69 235 0.0 6.1 0.00 0.00 0.00 46 1015.3
20260509162705 69 299 4.3 7.0 0.00 0.00 0.00 46 1015.4
20260509161942 69 305 2.6 7.0 0.00 0.00 0.00 48 1015.3
20260509161449 69 303 1.7 6.1 0.00 0.00 0.00 48 1015.4
20260509160942 69 316 3.5 7.0 0.00 0.00 0.00 47 1015.4
20260509160455 69 336 3.5 7.0 0.00 0.00 0.00 47 1015.5
20260509155942 69 73 2.6 7.8 0.00 0.00 0.00 49 1015.5
20260509155443 69 77 3.5 7.8 0.00 0.00 0.00 48 1015.5
20260509154942 69 70 4.3 11.3 0.00 0.00 0.00 48 1015.3
20260509154443 69 44 4.3 11.3 0.00 0.00 0.00 46 1015.5
20260509153942 69 33 5.2 8.7 0.00 0.00 0.00 49 1015.5
20260509153443 69 36 5.2 11.3 0.00 0.00 0.00 48 1015.3
20260509152941 69 108 5.2 11.3 0.00 0.00 0.00 48 1015.4
20260509152443 70 51 3.5 7.0 0.00 0.00 0.00 48 1015.4
20260509151951 69 345 0.9 6.1 0.00 0.00 0.00 48 1015.5
20260509151445 69 27 0.0 6.1 0.00 0.00 0.00 46 1015.4
20260509150442 68 66 2.6 9.6 0.00 0.00 0.00 49 1015.6
20260509145708 70 13 6.1 9.6 0.00 0.00 0.00 49 1015.6
20260509145206 70 43 6.1 8.7 0.00 0.00 0.00 48 1015.4
20260509144442 70 81 1.7 7.0 0.00 0.00 0.00 49 1015.5
20260509144205 70 3 2.6 7.0 0.00 0.00 0.00 47 1015.6
20260509143441 70 26 2.6 7.0 0.00 0.00 0.00 48 1015.7
20260509142942 70 47 2.6 8.7 0.00 0.00 0.00 46 1015.8
20260509142443 69 13 4.3 9.6 0.00 0.00 0.00 45 1015.9
20260509142207 69 78 4.3 9.6 0.00 0.00 0.00 49 1015.7
20260509141706 69 71 4.3 7.0 0.00 0.00 0.00 49 1015.8
20260509140443 69 82 8.7 11.3 0.00 0.00 0.00 50 1015.8
20260509135943 69 63 3.5 9.6 0.00 0.00 0.00 50 1015.9
20260509135442 69 76 3.5 7.8 0.00 0.00 0.00 48 1016.0
20260509134944 69 94 6.1 7.8 0.00 0.00 0.00 49 1016.0
20260509134705 68 98 4.3 7.8 0.00 0.00 0.00 50 1015.9
20260509133946 68 9 5.2 8.7 0.00 0.00 0.00 50 1016.0
20260509133441 68 42 3.5 11.3 0.00 0.00 0.00 48 1016.0
20260509132942 69 55 6.1 13.0 0.00 0.00 0.00 51 1016.0
20260509131955 67 73 3.5 8.7 0.00 0.00 0.00 50 1016.0
20260509131442 68 73 6.1 12.2 0.00 0.00 0.00 50 1016.1
20260509130944 69 79 5.2 9.6 0.00 0.00 0.00 51 1016.2
20260509130709 68 313 0.9 7.8 0.00 0.00 0.00 50 1016.3
20260509125941 68 7 2.6 11.3 0.00 0.00 0.00 49 1016.4
20260509125443 68 60 4.3 12.2 0.00 0.00 0.00 51 1016.5
20260509124942 68 67 3.5 12.2 0.00 0.00 0.00 54 1016.6
20260509124446 69 37 5.2 12.2 0.00 0.00 0.00 50 1016.5
20260509123943 69 62 8.7 12.2 0.00 0.00 0.00 54 1016.6
20260509123443 68 84 6.1 11.3 0.00 0.00 0.00 48 1016.7
20260509122942 68 24 3.5 11.3 0.00 0.00 0.00 53 1016.7
20260509122700 68 28 4.3 11.3 0.00 0.00 0.00 55 1016.7
20260509121941 68 25 3.5 11.3 0.00 0.00 0.00 51 1016.9
20260509121443 68 15 7.0 12.2 0.00 0.00 0.00 53 1016.7
20260509121209 68 83 6.1 13.9 0.00 0.00 0.00 50 1016.8
20260509120444 68 359 5.2 13.9 0.00 0.00 0.00 51 1016.9
20260509115941 68 26 11.3 13.9 0.00 0.00 0.00 54 1016.9
20260509115442 68 9 7.0 13.9 0.00 0.00 0.00 53 1016.9
20260509114944 68 15 4.3 12.2 0.00 0.00 0.00 54 1017.3
20260509114440 67 18 5.2 13.0 0.00 0.00 0.00 52 1017.2
20260509113942 67 26 7.8 13.0 0.00 0.00 0.00 54 1017.2
20260509113441 67 6 5.2 14.8 0.00 0.00 0.00 54 1017.4
20260509112942 67 69 3.5 14.8 0.00 0.00 0.00 53 1017.4
20260509112442 67 2 7.8 9.6 0.00 0.00 0.00 57 1017.4
20260509111943 67 60 4.3 11.3 0.00 0.00 0.00 58 1017.5
20260509111446 67 73 5.2 11.3 0.00 0.00 0.00 57 1017.4
20260509111207 67 349 5.2 13.9 0.00 0.00 0.00 55 1017.4
20260509110704 67 53 6.1 13.9 0.00 0.00 0.00 53 1017.5
20260509105945 66 12 7.0 13.9 0.00 0.00 0.00 55 1017.8
20260509105446 67 32 7.8 11.3 0.00 0.00 0.00 54 1017.8
20260509104942 67 72 5.2 13.0 0.00 0.00 0.00 54 1017.8
20260509104443 66 0 9.6 13.0 0.00 0.00 0.00 57 1017.4
20260509103941 67 41 8.7 11.3 0.00 0.00 0.00 58 1017.6
20260509103442 66 78 4.3 13.9 0.00 0.00 0.00 57 1017.6
20260509102942 66 62 7.0 13.9 0.00 0.00 0.00 58 1017.6
20260509102443 65 7 3.5 8.7 0.00 0.00 0.00 55 1017.6
20260509102209 66 54 6.1 12.2 0.00 0.00 0.00 58 1017.9
20260509101442 65 21 4.3 12.2 0.00 0.00 0.00 59 1017.7
20260509100951 65 62 7.8 12.2 0.00 0.00 0.00 59 1017.8
20260509095948 65 38 5.2 12.2 0.00 0.00 0.00 55 1018.0
20260509095443 65 53 5.2 12.2 0.00 0.00 0.00 56 1017.8
20260509094941 65 77 3.5 12.2 0.00 0.00 0.00 59 1017.9
20260509094442 64 65 8.7 12.2 0.00 0.00 0.00 56 1017.9
20260509093942 64 31 5.2 12.2 0.00 0.00 0.00 56 1018.0
20260509093441 64 38 5.2 12.2 0.00 0.00 0.00 58 1018.1
20260509092941 64 96 7.0 12.2 0.00 0.00 0.00 56 1017.9
20260509092707 64 69 6.1 11.3 0.00 0.00 0.00 60 1017.9
20260509091943 64 13 3.5 12.2 0.00 0.00 0.00 56 1018.1
20260509091443 64 16 6.1 12.2 0.00 0.00 0.00 57 1018.2
20260509090942 64 32 4.3 9.6 0.00 0.00 0.00 60 1018.0
20260509090442 64 36 5.2 14.8 0.00 0.00 0.00 61 1017.8
20260509090233 63 62 7.8 14.8 0.00 0.00 0.00 59 1018.1
20260509085443 63 53 7.0 13.0 0.00 0.00 0.00 60 1018.0
20260509084943 63 79 8.7 13.0 0.00 0.00 0.00 61 1017.8
20260509084442 63 80 9.6 13.0 0.00 0.00 0.00 61 1018.0
20260509083943 63 63 7.8 12.2 0.00 0.00 0.00 60 1017.9
20260509083442 62 50 5.2 11.3 0.00 0.00 0.00 61 1018.0
20260509082948 62 74 5.2 13.9 0.00 0.00 0.00 62 1018.0
20260509082442 62 64 4.3 14.8 0.00 0.00 0.00 61 1018.1
20260509082159 62 79 11.3 14.8 0.00 0.00 0.00 60 1018.0
20260509081706 62 80 8.7 13.9 0.00 0.00 0.00 61 1018.2
20260509080954 61 64 8.7 12.2 0.00 0.00 0.00 62 1018.3
20260509080440 61 60 7.0 12.2 0.00 0.00 0.00 63 1018.1
20260509075441 61 57 5.2 9.6 0.00 0.00 0.00 68 1018.3
20260509074944 60 65 4.3 9.6 0.00 0.00 0.00 69 1018.3
20260509074443 60 17 4.3 9.6 0.00 0.00 0.00 70 1018.2
20260509073945 60 84 6.1 9.6 0.00 0.00 0.00 72 1018.2
20260509073711 59 78 6.1 7.8 0.00 0.00 0.00 73 1018.2
20260509072944 59 74 5.2 7.8 0.00 0.00 0.00 73 1018.2
20260509072443 58 100 5.2 7.8 0.00 0.00 0.00 73 1018.5
20260509071944 58 56 3.5 7.8 0.00 0.00 0.00 73 1018.2
20260509071442 57 84 3.5 7.0 0.00 0.00 0.00 75 1018.2
20260509071216 57 58 3.5 7.0 0.00 0.00 0.00 74 1018.1
20260509070455 56 42 3.5 7.8 0.00 0.00 0.00 75 1018.3
20260509065942 56 79 5.2 7.8 0.00 0.00 0.00 76 1018.1
20260509065709 55 66 5.2 7.0 0.00 0.00 0.00 78 1018.1
20260509064949 55 73 3.5 6.1 0.00 0.00 0.00 80 1018.0
20260509064442 54 91 5.2 6.1 0.00 0.00 0.00 81 1018.1